owner,sensor,date,latitude,longitude,vertical_datum,mass_concentration_of_oxygen_in_sea_water,qcFlag 
SCCF RECON,ioos:station:SCCF:13:1,2009-12-01T00:00:00Z,26.5255,-82.0032,2.6,7.41,1111122 
SCCF RECON,ioos:station:SCCF:13:1,2009-12-01T01:00:00Z,26.5255,-82.0032,2.69,7.35,1111122 
SCCF RECON,ioos:station:SCCF:13:1,2009-12-01T02:00:00Z,26.5255,-82.0032,2.76,7.57,1111122 
SCCF RECON,ioos:station:SCCF:13:1,2009-12-01T03:00:00Z,26.5255,-82.0032,2.82,7.34,1111122 
SCCF RECON,ioos:station:SCCF:13:1,2009-12-01T04:00:00Z,26.5255,-82.0032,2.85,7.12,1111122 
SCCF RECON,ioos:station:SCCF:13:1,2009-12-01T05:00:00Z,26.5255,-82.0032,2.857,7.3,1111122 
SCCF RECON,ioos:station:SCCF:13:1,2009-12-01T06:00:00Z,26.5255,-82.0032,2.77,7.21,1111122 
SCCF RECON,ioos:station:SCCF:13:1,2009-12-01T07:00:00Z,26.5255,-82.0032,2.64,7.17,1111122 
SCCF RECON,ioos:station:SCCF:13:1,2009-12-01T08:00:00Z,26.5255,-82.0032,2.52,7.01,1111122 
SCCF RECON,ioos:station:SCCF:13:1,2009-12-01T09:00:00Z,26.5255,-82.0032,2.419,7.03,1111122 
SCCF RECON,ioos:station:SCCF:13:1,2009-12-01T10:00:00Z,26.5255,-82.0032,2.318,7.12,1111122 
SCCF RECON,ioos:station:SCCF:13:1,2009-12-01T11:00:00Z,26.5255,-82.0032,2.22,7.02,1111122 
SCCF RECON,ioos:station:SCCF:13:1,2009-12-01T12:00:00Z,26.5255,-82.0032,2.153,6.96,1111122 
SCCF RECON,ioos:station:SCCF:13:1,2009-12-01T13:00:00Z,26.5255,-82.0032,2.16,6.93,1111122 
SCCF RECON,ioos:station:SCCF:13:1,2009-12-01T14:00:00Z,26.5255,-82.0032,2.29,6.96,1111122 
SCCF RECON,ioos:station:SCCF:13:1,2009-12-01T15:00:00Z,26.5255,-82.0032,2.391,6.98,1111122 
SCCF RECON,ioos:station:SCCF:13:1,2009-12-01T16:00:00Z,26.5255,-82.0032,2.47,6.75,1111122 
SCCF RECON,ioos:station:SCCF:13:1,2009-12-01T17:00:00Z,26.5255,-82.0032,2.54,6.97,1111122 
SCCF RECON,ioos:station:SCCF:13:1,2009-12-01T18:00:00Z,26.5255,-82.0032,2.578,7.08,1111122 
SCCF RECON,ioos:station:SCCF:13:1,2009-12-01T19:00:00Z,26.5255,-82.0032,2.58,7.2,1111122 
SCCF RECON,ioos:station:SCCF:13:1,2009-12-01T20:00:00Z,26.5255,-82.0032,2.53,7.52,1111122 
SCCF RECON,ioos:station:SCCF:13:1,2009-12-01T21:00:00Z,26.5255,-82.0032,2.49,7.69,1111122 
SCCF RECON,ioos:station:SCCF:13:1,2009-12-01T22:00:00Z,26.5255,-82.0032,2.48,7.63,1111122 
SCCF RECON,ioos:station:SCCF:13:1,2009-12-01T23:00:00Z,26.5255,-82.0032,2.49,7.48,1111122 
SCCF RECON,ioos:station:SCCF:13:1,2009-12-02T00:00:00Z,26.5255,-82.0032,2.54,7.34,1111122 
SCCF RECON,ioos:station:SCCF:13:1,2009-12-02T01:00:00Z,26.5255,-82.0032,2.64,7.27,1111122 
SCCF RECON,ioos:station:SCCF:13:1,2009-12-02T02:00:00Z,26.5255,-82.0032,2.74,7.61,1111122 
SCCF RECON,ioos:station:SCCF:13:1,2009-12-02T03:00:00Z,26.5255,-82.0032,2.826,7.31,1111122 
SCCF RECON,ioos:station:SCCF:13:1,2009-12-02T04:00:00Z,26.5255,-82.0032,2.88,7.45,1111122 
SCCF RECON,ioos:station:SCCF:13:1,2009-12-02T05:00:00Z,26.5255,-82.0032,2.896,7.35,1111122 
SCCF RECON,ioos:station:SCCF:13:1,2009-12-02T06:00:00Z,26.5255,-82.0032,2.865,7.22,1111122 
SCCF RECON,ioos:station:SCCF:13:1,2009-12-02T07:00:00Z,26.5255,-82.0032,2.78,7.15,1111122 
SCCF RECON,ioos:station:SCCF:13:1,2009-12-02T08:00:00Z,26.5255,-82.0032,2.65,7.0,1111122 
SCCF RECON,ioos:station:SCCF:13:1,2009-12-02T09:00:00Z,26.5255,-82.0032,2.53,6.87,1111122 
SCCF RECON,ioos:station:SCCF:13:1,2009-12-02T10:00:00Z,26.5255,-82.0032,2.424,6.93,1111122 
SCCF RECON,ioos:station:SCCF:13:1,2009-12-02T11:00:00Z,26.5255,-82.0032,2.32,6.97,1111122 
SCCF RECON,ioos:station:SCCF:13:1,2009-12-02T12:00:00Z,26.5255,-82.0032,2.23,6.9,1111122 
SCCF RECON,ioos:station:SCCF:13:1,2009-12-02T13:00:00Z,26.5255,-82.0032,2.18,6.88,1111122 
SCCF RECON,ioos:station:SCCF:13:1,2009-12-02T14:00:00Z,26.5255,-82.0032,2.25,6.91,1111122 
SCCF RECON,ioos:station:SCCF:13:1,2009-12-02T15:00:00Z,26.5255,-82.0032,2.42,6.96,1111122 
SCCF RECON,ioos:station:SCCF:13:1,2009-12-02T16:00:00Z,26.5255,-82.0032,2.506,6.9,1111122 
SCCF RECON,ioos:station:SCCF:13:1,2009-12-02T17:00:00Z,26.5255,-82.0032,2.555,7.3,1111122 
SCCF RECON,ioos:station:SCCF:13:1,2009-12-02T18:00:00Z,26.5255,-82.0032,2.6,7.02,1111122 
SCCF RECON,ioos:station:SCCF:13:1,2009-12-02T19:00:00Z,26.5255,-82.0032,2.64,7.2,1111122 
SCCF RECON,ioos:station:SCCF:13:1,2009-12-02T20:00:00Z,26.5255,-82.0032,2.647,7.41,1111122 
SCCF RECON,ioos:station:SCCF:13:1,2009-12-02T21:00:00Z,26.5255,-82.0032,2.641,7.37,1111122 
SCCF RECON,ioos:station:SCCF:13:1,2009-12-02T22:00:00Z,26.5255,-82.0032,2.65,7.26,1111122 
SCCF RECON,ioos:station:SCCF:13:1,2009-12-02T23:00:00Z,26.5255,-82.0032,2.62,7.3,1111122 
SCCF RECON,ioos:station:SCCF:13:1,2009-12-03T00:00:00Z,26.5255,-82.0032,2.62,7.22,1111122 
SCCF RECON,ioos:station:SCCF:13:1,2009-12-03T01:00:00Z,26.5255,-82.0032,2.68,7.01,1111122 
SCCF RECON,ioos:station:SCCF:13:1,2009-12-03T02:00:00Z,26.5255,-82.0032,2.77,6.8,1111122 
SCCF RECON,ioos:station:SCCF:13:1,2009-12-03T03:00:00Z,26.5255,-82.0032,2.82,6.77,1111122 
SCCF RECON,ioos:station:SCCF:13:1,2009-12-03T04:00:00Z,26.5255,-82.0032,2.881,6.77,1111122 
SCCF RECON,ioos:station:SCCF:13:1,2009-12-03T05:00:00Z,26.5255,-82.0032,2.914,6.61,1111122 
SCCF RECON,ioos:station:SCCF:13:1,2009-12-03T06:00:00Z,26.5255,-82.0032,2.92,6.39,1111122 
SCCF RECON,ioos:station:SCCF:13:1,2009-12-03T07:00:00Z,26.5255,-82.0032,2.87,6.33,1111122 
SCCF RECON,ioos:station:SCCF:13:1,2009-12-03T08:00:00Z,26.5255,-82.0032,2.763,6.33,1111122 
SCCF RECON,ioos:station:SCCF:13:1,2009-12-03T09:00:00Z,26.5255,-82.0032,2.65,6.15,1111122 
SCCF RECON,ioos:station:SCCF:13:1,2009-12-03T10:00:00Z,26.5255,-82.0032,2.532,6.13,1111122 
SCCF RECON,ioos:station:SCCF:13:1,2009-12-03T11:00:00Z,26.5255,-82.0032,2.423,6.36,1111122 
SCCF RECON,ioos:station:SCCF:13:1,2009-12-03T12:00:00Z,26.5255,-82.0032,2.321,6.47,1111122 
SCCF RECON,ioos:station:SCCF:13:1,2009-12-03T13:00:00Z,26.5255,-82.0032,2.24,6.52,1111122 
SCCF RECON,ioos:station:SCCF:13:1,2009-12-03T14:00:00Z,26.5255,-82.0032,2.204,6.66,1111122 
SCCF RECON,ioos:station:SCCF:13:1,2009-12-03T15:00:00Z,26.5255,-82.0032,2.25,6.7,1111122 
SCCF RECON,ioos:station:SCCF:13:1,2009-12-03T16:00:00Z,26.5255,-82.0032,2.38,6.73,1111122 
SCCF RECON,ioos:station:SCCF:13:1,2009-12-03T17:00:00Z,26.5255,-82.0032,2.46,6.71,1111122 
SCCF RECON,ioos:station:SCCF:13:1,2009-12-03T18:00:00Z,26.5255,-82.0032,2.511,6.47,1111122 
SCCF RECON,ioos:station:SCCF:13:1,2009-12-03T19:00:00Z,26.5255,-82.0032,2.55,6.73,1111122 
SCCF RECON,ioos:station:SCCF:13:1,2009-12-03T20:00:00Z,26.5255,-82.0032,2.55,6.63,1111122 
SCCF RECON,ioos:station:SCCF:13:1,2009-12-03T21:00:00Z,26.5255,-82.0032,2.536,6.59,1111122 
SCCF RECON,ioos:station:SCCF:13:1,2009-12-03T22:00:00Z,26.5255,-82.0032,2.51,6.18,1111122 
SCCF RECON,ioos:station:SCCF:13:1,2009-12-03T23:00:00Z,26.5255,-82.0032,2.47,6.15,1111122 
SCCF RECON,ioos:station:SCCF:13:1,2009-12-04T00:00:00Z,26.5255,-82.0032,2.43,6.43,1111122 
SCCF RECON,ioos:station:SCCF:13:1,2009-12-04T01:00:00Z,26.5255,-82.0032,2.43,6.45,1111122 
SCCF RECON,ioos:station:SCCF:13:1,2009-12-04T02:00:00Z,26.5255,-82.0032,2.5,6.55,1111122 
SCCF RECON,ioos:station:SCCF:13:1,2009-12-04T03:00:00Z,26.5255,-82.0032,2.61,6.06,1111122 
SCCF RECON,ioos:station:SCCF:13:1,2009-12-04T04:00:00Z,26.5255,-82.0032,2.69,6.01,1111122 
SCCF RECON,ioos:station:SCCF:13:1,2009-12-04T05:00:00Z,26.5255,-82.0032,2.749,6.12,1111122 
SCCF RECON,ioos:station:SCCF:13:1,2009-12-04T06:00:00Z,26.5255,-82.0032,2.787,6.01,1111122 
SCCF RECON,ioos:station:SCCF:13:1,2009-12-04T07:00:00Z,26.5255,-82.0032,2.753,5.81,1111122 
SCCF RECON,ioos:station:SCCF:13:1,2009-12-04T08:00:00Z,26.5255,-82.0032,2.665,5.68,1111122 
SCCF RECON,ioos:station:SCCF:13:1,2009-12-04T09:00:00Z,26.5255,-82.0032,2.55,5.59,1111122 
SCCF RECON,ioos:station:SCCF:13:1,2009-12-04T10:00:00Z,26.5255,-82.0032,2.45,5.71,1111122 
SCCF RECON,ioos:station:SCCF:13:1,2009-12-04T11:00:00Z,26.5255,-82.0032,2.343,5.98,1111122 
SCCF RECON,ioos:station:SCCF:13:1,2009-12-04T12:00:00Z,26.5255,-82.0032,2.24,6.2,1111122 
SCCF RECON,ioos:station:SCCF:13:1,2009-12-04T13:00:00Z,26.5255,-82.0032,2.14,6.34,1111122 
SCCF RECON,ioos:station:SCCF:13:1,2009-12-04T14:00:00Z,26.5255,-82.0032,2.05,6.36,1111122 
SCCF RECON,ioos:station:SCCF:13:1,2009-12-04T15:00:00Z,26.5255,-82.0032,2.006,6.42,1111122 
SCCF RECON,ioos:station:SCCF:13:1,2009-12-04T16:00:00Z,26.5255,-82.0032,2.09,6.43,1111122 
SCCF RECON,ioos:station:SCCF:13:1,2009-12-04T17:00:00Z,26.5255,-82.0032,2.24,6.46,1111122 
SCCF RECON,ioos:station:SCCF:13:1,2009-12-04T18:00:00Z,26.5255,-82.0032,2.3,6.17,1111122 
SCCF RECON,ioos:station:SCCF:13:1,2009-12-04T19:00:00Z,26.5255,-82.0032,2.34,6.12,1111122 
SCCF RECON,ioos:station:SCCF:13:1,2009-12-04T20:00:00Z,26.5255,-82.0032,2.39,6.22,1111122 
SCCF RECON,ioos:station:SCCF:13:1,2009-12-04T21:00:00Z,26.5255,-82.0032,2.43,6.0,1111122 
SCCF RECON,ioos:station:SCCF:13:1,2009-12-04T22:00:00Z,26.5255,-82.0032,2.409,5.73,1111122 
SCCF RECON,ioos:station:SCCF:13:1,2009-12-04T23:00:00Z,26.5255,-82.0032,2.33,5.93,1111122 
SCCF RECON,ioos:station:SCCF:13:1,2009-12-05T00:00:00Z,26.5255,-82.0032,2.279,5.99,1111122 
SCCF RECON,ioos:station:SCCF:13:1,2009-12-05T01:00:00Z,26.5255,-82.0032,2.26,6.12,1111122 
SCCF RECON,ioos:station:SCCF:13:1,2009-12-05T02:00:00Z,26.5255,-82.0032,2.249,6.3,1111122 
SCCF RECON,ioos:station:SCCF:13:1,2009-12-05T03:00:00Z,26.5255,-82.0032,2.323,6.47,1111122 
SCCF RECON,ioos:station:SCCF:13:1,2009-12-05T04:00:00Z,26.5255,-82.0032,2.47,5.98,1111122 
SCCF RECON,ioos:station:SCCF:13:1,2009-12-05T05:00:00Z,26.5255,-82.0032,2.57,6.09,1111122 
SCCF RECON,ioos:station:SCCF:13:1,2009-12-05T06:00:00Z,26.5255,-82.0032,2.612,6.04,1111122 
SCCF RECON,ioos:station:SCCF:13:1,2009-12-05T07:00:00Z,26.5255,-82.0032,2.64,6.03,1111122 
SCCF RECON,ioos:station:SCCF:13:1,2009-12-05T08:00:00Z,26.5255,-82.0032,2.63,6.02,1111122 
SCCF RECON,ioos:station:SCCF:13:1,2009-12-05T09:00:00Z,26.5255,-82.0032,2.61,6.0,1111122 
SCCF RECON,ioos:station:SCCF:13:1,2009-12-05T10:00:00Z,26.5255,-82.0032,2.51,5.97,1111122 
SCCF RECON,ioos:station:SCCF:13:1,2009-12-05T11:00:00Z,26.5255,-82.0032,2.39,5.89,1111122 
SCCF RECON,ioos:station:SCCF:13:1,2009-12-05T12:00:00Z,26.5255,-82.0032,2.29,6.18,1111122 
SCCF RECON,ioos:station:SCCF:13:1,2009-12-05T13:00:00Z,26.5255,-82.0032,2.205,6.23,1111122 
SCCF RECON,ioos:station:SCCF:13:1,2009-12-05T14:00:00Z,26.5255,-82.0032,2.137,6.26,1111122 
SCCF RECON,ioos:station:SCCF:13:1,2009-12-05T15:00:00Z,26.5255,-82.0032,2.1,6.31,1111122 
SCCF RECON,ioos:station:SCCF:13:1,2009-12-05T16:00:00Z,26.5255,-82.0032,2.172,6.33,1111122 
SCCF RECON,ioos:station:SCCF:13:1,2009-12-05T17:00:00Z,26.5255,-82.0032,2.274,6.41,1111122 
SCCF RECON,ioos:station:SCCF:13:1,2009-12-05T18:00:00Z,26.5255,-82.0032,2.349,6.37,1111122 
SCCF RECON,ioos:station:SCCF:13:1,2009-12-05T19:00:00Z,26.5255,-82.0032,2.391,6.35,1111122 
SCCF RECON,ioos:station:SCCF:13:1,2009-12-05T20:00:00Z,26.5255,-82.0032,2.403,6.18,1111122 
SCCF RECON,ioos:station:SCCF:13:1,2009-12-05T21:00:00Z,26.5255,-82.0032,2.327,6.32,1111122 
SCCF RECON,ioos:station:SCCF:13:1,2009-12-05T22:00:00Z,26.5255,-82.0032,2.34,6.36,1111122 
SCCF RECON,ioos:station:SCCF:13:1,2009-12-05T23:00:00Z,26.5255,-82.0032,2.35,6.39,1111122 
SCCF RECON,ioos:station:SCCF:13:1,2009-12-06T00:00:00Z,26.5255,-82.0032,2.26,6.55,1111122 
SCCF RECON,ioos:station:SCCF:13:1,2009-12-06T01:00:00Z,26.5255,-82.0032,2.2,6.49,1111122 
SCCF RECON,ioos:station:SCCF:13:1,2009-12-06T02:00:00Z,26.5255,-82.0032,2.15,6.59,1111122 
SCCF RECON,ioos:station:SCCF:13:1,2009-12-06T03:00:00Z,26.5255,-82.0032,2.15,6.67,1111122 
SCCF RECON,ioos:station:SCCF:13:1,2009-12-06T04:00:00Z,26.5255,-82.0032,2.188,6.7,1111122 
SCCF RECON,ioos:station:SCCF:13:1,2009-12-06T05:00:00Z,26.5255,-82.0032,2.35,6.54,1111122 
SCCF RECON,ioos:station:SCCF:13:1,2009-12-06T06:00:00Z,26.5255,-82.0032,2.43,6.43,1111122 
SCCF RECON,ioos:station:SCCF:13:1,2009-12-06T07:00:00Z,26.5255,-82.0032,2.464,6.39,1111122 
SCCF RECON,ioos:station:SCCF:13:1,2009-12-06T08:00:00Z,26.5255,-82.0032,2.49,6.41,1111122 
SCCF RECON,ioos:station:SCCF:13:1,2009-12-06T09:00:00Z,26.5255,-82.0032,2.48,6.35,1111122 
SCCF RECON,ioos:station:SCCF:13:1,2009-12-06T10:00:00Z,26.5255,-82.0032,2.42,6.3,1111122 
SCCF RECON,ioos:station:SCCF:13:1,2009-12-06T11:00:00Z,26.5255,-82.0032,2.35,6.25,1111122 
SCCF RECON,ioos:station:SCCF:13:1,2009-12-06T12:00:00Z,26.5255,-82.0032,2.28,6.3,1111122 
SCCF RECON,ioos:station:SCCF:13:1,2009-12-06T13:00:00Z,26.5255,-82.0032,2.21,6.29,1111122 
SCCF RECON,ioos:station:SCCF:13:1,2009-12-06T14:00:00Z,26.5255,-82.0032,2.13,6.52,1111122 
SCCF RECON,ioos:station:SCCF:13:1,2009-12-06T15:00:00Z,26.5255,-82.0032,2.052,6.66,1111122 
SCCF RECON,ioos:station:SCCF:13:1,2009-12-06T16:00:00Z,26.5255,-82.0032,2.01,6.87,1111122 
SCCF RECON,ioos:station:SCCF:13:1,2009-12-06T17:00:00Z,26.5255,-82.0032,2.05,7.01,1111122 
SCCF RECON,ioos:station:SCCF:13:1,2009-12-06T18:00:00Z,26.5255,-82.0032,2.17,7.07,1111122 
SCCF RECON,ioos:station:SCCF:13:1,2009-12-06T19:00:00Z,26.5255,-82.0032,2.253,7.04,1111122 
SCCF RECON,ioos:station:SCCF:13:1,2009-12-06T20:00:00Z,26.5255,-82.0032,2.32,7.06,1111122 
SCCF RECON,ioos:station:SCCF:13:1,2009-12-06T21:00:00Z,26.5255,-82.0032,2.403,6.73,1111122 
SCCF RECON,ioos:station:SCCF:13:1,2009-12-06T22:00:00Z,26.5255,-82.0032,2.479,6.97,1111122 
SCCF RECON,ioos:station:SCCF:13:1,2009-12-06T23:00:00Z,26.5255,-82.0032,2.49,6.74,1111122 
SCCF RECON,ioos:station:SCCF:13:1,2009-12-07T00:00:00Z,26.5255,-82.0032,2.45,6.6,1111122 
SCCF RECON,ioos:station:SCCF:13:1,2009-12-07T01:00:00Z,26.5255,-82.0032,2.4,6.58,1111122 
SCCF RECON,ioos:station:SCCF:13:1,2009-12-07T02:00:00Z,26.5255,-82.0032,2.33,6.55,1111122 
SCCF RECON,ioos:station:SCCF:13:1,2009-12-07T03:00:00Z,26.5255,-82.0032,2.31,6.54,1111122 
SCCF RECON,ioos:station:SCCF:13:1,2009-12-07T04:00:00Z,26.5255,-82.0032,2.34,6.54,1111122 
SCCF RECON,ioos:station:SCCF:13:1,2009-12-07T05:00:00Z,26.5255,-82.0032,2.41,6.5,1111122 
SCCF RECON,ioos:station:SCCF:13:1,2009-12-07T06:00:00Z,26.5255,-82.0032,2.49,6.23,1111122 
SCCF RECON,ioos:station:SCCF:13:1,2009-12-07T07:00:00Z,26.5255,-82.0032,2.54,6.39,1111122 
SCCF RECON,ioos:station:SCCF:13:1,2009-12-07T08:00:00Z,26.5255,-82.0032,2.575,6.49,1111122 
SCCF RECON,ioos:station:SCCF:13:1,2009-12-07T09:00:00Z,26.5255,-82.0032,2.608,6.42,1111122 
SCCF RECON,ioos:station:SCCF:13:1,2009-12-07T10:00:00Z,26.5255,-82.0032,2.61,6.19,1111122 
SCCF RECON,ioos:station:SCCF:13:1,2009-12-07T11:00:00Z,26.5255,-82.0032,2.571,6.09,1111122 
SCCF RECON,ioos:station:SCCF:13:1,2009-12-07T12:00:00Z,26.5255,-82.0032,2.5,6.06,1111122 
SCCF RECON,ioos:station:SCCF:13:1,2009-12-07T13:00:00Z,26.5255,-82.0032,2.42,6.19,1111122 
SCCF RECON,ioos:station:SCCF:13:1,2009-12-07T14:00:00Z,26.5255,-82.0032,2.333,6.45,1111122 
SCCF RECON,ioos:station:SCCF:13:1,2009-12-07T15:00:00Z,26.5255,-82.0032,2.251,6.59,1111122 
SCCF RECON,ioos:station:SCCF:13:1,2009-12-07T16:00:00Z,26.5255,-82.0032,2.18,6.77,1111122 
SCCF RECON,ioos:station:SCCF:13:1,2009-12-07T17:00:00Z,26.5255,-82.0032,2.14,6.87,1111122 
SCCF RECON,ioos:station:SCCF:13:1,2009-12-07T18:00:00Z,26.5255,-82.0032,2.192,6.97,1111122 
SCCF RECON,ioos:station:SCCF:13:1,2009-12-07T19:00:00Z,26.5255,-82.0032,2.32,7.05,1111122 
SCCF RECON,ioos:station:SCCF:13:1,2009-12-07T20:00:00Z,26.5255,-82.0032,2.38,7.42,1111122 
SCCF RECON,ioos:station:SCCF:13:1,2009-12-07T21:00:00Z,26.5255,-82.0032,2.428,7.37,1111122 
SCCF RECON,ioos:station:SCCF:13:1,2009-12-07T22:00:00Z,26.5255,-82.0032,2.466,6.91,1111122 
SCCF RECON,ioos:station:SCCF:13:1,2009-12-07T23:00:00Z,26.5255,-82.0032,2.5,6.88,1111122 
SCCF RECON,ioos:station:SCCF:13:1,2009-12-08T00:00:00Z,26.5255,-82.0032,2.511,7.0,1111122 
SCCF RECON,ioos:station:SCCF:13:1,2009-12-08T01:00:00Z,26.5255,-82.0032,2.47,6.93,1111122 
SCCF RECON,ioos:station:SCCF:13:1,2009-12-08T02:00:00Z,26.5255,-82.0032,2.39,6.92,1111122 
SCCF RECON,ioos:station:SCCF:13:1,2009-12-08T03:00:00Z,26.5255,-82.0032,2.33,6.83,1111122 
SCCF RECON,ioos:station:SCCF:13:1,2009-12-08T04:00:00Z,26.5255,-82.0032,2.29,6.77,1111122 
SCCF RECON,ioos:station:SCCF:13:1,2009-12-08T05:00:00Z,26.5255,-82.0032,2.283,6.93,1111122 
SCCF RECON,ioos:station:SCCF:13:1,2009-12-08T06:00:00Z,26.5255,-82.0032,2.33,7.01,1111122 
SCCF RECON,ioos:station:SCCF:13:1,2009-12-08T07:00:00Z,26.5255,-82.0032,2.39,6.8,1111122 
SCCF RECON,ioos:station:SCCF:13:1,2009-12-08T08:00:00Z,26.5255,-82.0032,2.45,6.29,1111122 
SCCF RECON,ioos:station:SCCF:13:1,2009-12-08T09:00:00Z,26.5255,-82.0032,2.5,6.45,1111122 
SCCF RECON,ioos:station:SCCF:13:1,2009-12-08T10:00:00Z,26.5255,-82.0032,2.543,6.54,1111122 
SCCF RECON,ioos:station:SCCF:13:1,2009-12-08T11:00:00Z,26.5255,-82.0032,2.571,6.52,1111122 
SCCF RECON,ioos:station:SCCF:13:1,2009-12-08T12:00:00Z,26.5255,-82.0032,2.562,6.26,1111122 
SCCF RECON,ioos:station:SCCF:13:1,2009-12-08T13:00:00Z,26.5255,-82.0032,2.51,5.94,1111122 
SCCF RECON,ioos:station:SCCF:13:1,2009-12-08T14:00:00Z,26.5255,-82.0032,2.44,6.03,1111122 
SCCF RECON,ioos:station:SCCF:13:1,2009-12-08T15:00:00Z,26.5255,-82.0032,2.359,6.46,1111122 
SCCF RECON,ioos:station:SCCF:13:1,2009-12-08T16:00:00Z,26.5255,-82.0032,2.29,6.76,1111122 
SCCF RECON,ioos:station:SCCF:13:1,2009-12-08T17:00:00Z,26.5255,-82.0032,2.25,6.9,1111122 
SCCF RECON,ioos:station:SCCF:13:1,2009-12-08T18:00:00Z,26.5255,-82.0032,2.22,6.98,1111122 
SCCF RECON,ioos:station:SCCF:13:1,2009-12-08T19:00:00Z,26.5255,-82.0032,2.3,7.1,1111122 
SCCF RECON,ioos:station:SCCF:13:1,2009-12-08T20:00:00Z,26.5255,-82.0032,2.41,6.91,1111122 
SCCF RECON,ioos:station:SCCF:13:1,2009-12-08T21:00:00Z,26.5255,-82.0032,2.469,7.11,1111122 
SCCF RECON,ioos:station:SCCF:13:1,2009-12-08T22:00:00Z,26.5255,-82.0032,2.51,7.21,1111122 
SCCF RECON,ioos:station:SCCF:13:1,2009-12-08T23:00:00Z,26.5255,-82.0032,2.562,6.99,1111122 
SCCF RECON,ioos:station:SCCF:13:1,2009-12-09T00:00:00Z,26.5255,-82.0032,2.58,7.28,1111122 
SCCF RECON,ioos:station:SCCF:13:1,2009-12-09T01:00:00Z,26.5255,-82.0032,2.59,7.12,1111122 
SCCF RECON,ioos:station:SCCF:13:1,2009-12-09T02:00:00Z,26.5255,-82.0032,2.55,7.01,1111122 
SCCF RECON,ioos:station:SCCF:13:1,2009-12-09T03:00:00Z,26.5255,-82.0032,2.48,6.94,1111122 
SCCF RECON,ioos:station:SCCF:13:1,2009-12-09T04:00:00Z,26.5255,-82.0032,2.419,6.83,1111122 
SCCF RECON,ioos:station:SCCF:13:1,2009-12-09T05:00:00Z,26.5255,-82.0032,2.36,6.81,1111122 
SCCF RECON,ioos:station:SCCF:13:1,2009-12-09T06:00:00Z,26.5255,-82.0032,2.33,6.94,1111122 
SCCF RECON,ioos:station:SCCF:13:1,2009-12-09T07:00:00Z,26.5255,-82.0032,2.323,6.9,1111122 
SCCF RECON,ioos:station:SCCF:13:1,2009-12-09T08:00:00Z,26.5255,-82.0032,2.405,6.87,1111122 
SCCF RECON,ioos:station:SCCF:13:1,2009-12-09T09:00:00Z,26.5255,-82.0032,2.48,6.52,1111122 
SCCF RECON,ioos:station:SCCF:13:1,2009-12-09T10:00:00Z,26.5255,-82.0032,2.51,6.41,1111122 
SCCF RECON,ioos:station:SCCF:13:1,2009-12-09T11:00:00Z,26.5255,-82.0032,2.54,6.47,1111122 
SCCF RECON,ioos:station:SCCF:13:1,2009-12-09T12:00:00Z,26.5255,-82.0032,2.58,6.51,1111122 
SCCF RECON,ioos:station:SCCF:13:1,2009-12-09T13:00:00Z,26.5255,-82.0032,2.59,6.5,1111122 
SCCF RECON,ioos:station:SCCF:13:1,2009-12-09T14:00:00Z,26.5255,-82.0032,2.538,6.3,1111122 
SCCF RECON,ioos:station:SCCF:13:1,2009-12-09T15:00:00Z,26.5255,-82.0032,2.46,6.29,1111122 
SCCF RECON,ioos:station:SCCF:13:1,2009-12-09T16:00:00Z,26.5255,-82.0032,2.389,6.66,1111122 
SCCF RECON,ioos:station:SCCF:13:1,2009-12-09T17:00:00Z,26.5255,-82.0032,2.32,6.95,1111122 
SCCF RECON,ioos:station:SCCF:13:1,2009-12-09T18:00:00Z,26.5255,-82.0032,2.28,7.03,1111122 
SCCF RECON,ioos:station:SCCF:13:1,2009-12-09T19:00:00Z,26.5255,-82.0032,2.3,7.1,1111122 
SCCF RECON,ioos:station:SCCF:13:1,2009-12-09T20:00:00Z,26.5255,-82.0032,2.379,7.15,1111122 
SCCF RECON,ioos:station:SCCF:13:1,2009-12-09T21:00:00Z,26.5255,-82.0032,2.46,7.28,1111122 
SCCF RECON,ioos:station:SCCF:13:1,2009-12-09T22:00:00Z,26.5255,-82.0032,2.51,7.48,1111122 
SCCF RECON,ioos:station:SCCF:13:1,2009-12-09T23:00:00Z,26.5255,-82.0032,2.561,7.29,1111122 
SCCF RECON,ioos:station:SCCF:13:1,2009-12-10T00:00:00Z,26.5255,-82.0032,2.62,6.98,1111122 
SCCF RECON,ioos:station:SCCF:13:1,2009-12-10T01:00:00Z,26.5255,-82.0032,2.66,7.8,1111122 
SCCF RECON,ioos:station:SCCF:13:1,2009-12-10T02:00:00Z,26.5255,-82.0032,2.66,7.54,1111122 
SCCF RECON,ioos:station:SCCF:13:1,2009-12-10T03:00:00Z,26.5255,-82.0032,2.59,7.33,1111122 
SCCF RECON,ioos:station:SCCF:13:1,2009-12-10T04:00:00Z,26.5255,-82.0032,2.5,7.21,1111122 
SCCF RECON,ioos:station:SCCF:13:1,2009-12-10T05:00:00Z,26.5255,-82.0032,2.425,7.07,1111122 
SCCF RECON,ioos:station:SCCF:13:1,2009-12-10T06:00:00Z,26.5255,-82.0032,2.351,6.95,1111122 
SCCF RECON,ioos:station:SCCF:13:1,2009-12-10T07:00:00Z,26.5255,-82.0032,2.288,6.84,1111122 
SCCF RECON,ioos:station:SCCF:13:1,2009-12-10T08:00:00Z,26.5255,-82.0032,2.26,6.82,1111122 
SCCF RECON,ioos:station:SCCF:13:1,2009-12-10T09:00:00Z,26.5255,-82.0032,2.301,6.8,1111122 
SCCF RECON,ioos:station:SCCF:13:1,2009-12-10T10:00:00Z,26.5255,-82.0032,2.4,6.79,1111122 
SCCF RECON,ioos:station:SCCF:13:1,2009-12-10T11:00:00Z,26.5255,-82.0032,2.45,6.41,1111122 
SCCF RECON,ioos:station:SCCF:13:1,2009-12-10T12:00:00Z,26.5255,-82.0032,2.481,6.26,1111122 
SCCF RECON,ioos:station:SCCF:13:1,2009-12-10T13:00:00Z,26.5255,-82.0032,2.53,6.41,1111122 
SCCF RECON,ioos:station:SCCF:13:1,2009-12-10T14:00:00Z,26.5255,-82.0032,2.559,6.53,1111122 
SCCF RECON,ioos:station:SCCF:13:1,2009-12-10T15:00:00Z,26.5255,-82.0032,2.551,6.64,1111122 
SCCF RECON,ioos:station:SCCF:13:1,2009-12-10T16:00:00Z,26.5255,-82.0032,2.525,6.55,1111122 
SCCF RECON,ioos:station:SCCF:13:1,2009-12-10T17:00:00Z,26.5255,-82.0032,2.47,6.45,1111122 
SCCF RECON,ioos:station:SCCF:13:1,2009-12-10T18:00:00Z,26.5255,-82.0032,2.41,7.04,1111122 
SCCF RECON,ioos:station:SCCF:13:1,2009-12-10T20:00:00Z,26.5255,-82.0032,2.381,7.25,1111122 
SCCF RECON,ioos:station:SCCF:13:1,2009-12-10T21:00:00Z,26.5255,-82.0032,2.44,7.13,1111122 
SCCF RECON,ioos:station:SCCF:13:1,2009-12-10T22:00:00Z,26.5255,-82.0032,2.55,7.16,1111122 
SCCF RECON,ioos:station:SCCF:13:1,2009-12-10T23:00:00Z,26.5255,-82.0032,2.619,7.42,1111122 
SCCF RECON,ioos:station:SCCF:13:1,2009-12-11T00:00:00Z,26.5255,-82.0032,2.67,7.17,1111122 
SCCF RECON,ioos:station:SCCF:13:1,2009-12-11T01:00:00Z,26.5255,-82.0032,2.66,7.08,1111122 
SCCF RECON,ioos:station:SCCF:13:1,2009-12-11T02:00:00Z,26.5255,-82.0032,2.621,6.89,1111122 
SCCF RECON,ioos:station:SCCF:13:1,2009-12-11T03:00:00Z,26.5255,-82.0032,2.57,6.91,1111122 
SCCF RECON,ioos:station:SCCF:13:1,2009-12-11T04:00:00Z,26.5255,-82.0032,2.49,6.79,1111122 
SCCF RECON,ioos:station:SCCF:13:1,2009-12-11T05:00:00Z,26.5255,-82.0032,2.41,6.76,1111122 
SCCF RECON,ioos:station:SCCF:13:1,2009-12-11T06:00:00Z,26.5255,-82.0032,2.33,6.73,1111122 
SCCF RECON,ioos:station:SCCF:13:1,2009-12-11T07:00:00Z,26.5255,-82.0032,2.24,6.73,1111122 
SCCF RECON,ioos:station:SCCF:13:1,2009-12-11T08:00:00Z,26.5255,-82.0032,2.16,6.77,1111122 
SCCF RECON,ioos:station:SCCF:13:1,2009-12-11T09:00:00Z,26.5255,-82.0032,2.11,6.76,1111122 
SCCF RECON,ioos:station:SCCF:13:1,2009-12-11T10:00:00Z,26.5255,-82.0032,2.1,6.75,1111122 
SCCF RECON,ioos:station:SCCF:13:1,2009-12-11T11:00:00Z,26.5255,-82.0032,2.15,6.73,1111122 
SCCF RECON,ioos:station:SCCF:13:1,2009-12-11T12:00:00Z,26.5255,-82.0032,2.228,6.65,1111122 
SCCF RECON,ioos:station:SCCF:13:1,2009-12-11T13:00:00Z,26.5255,-82.0032,2.312,6.44,1111122 
SCCF RECON,ioos:station:SCCF:13:1,2009-12-11T14:00:00Z,26.5255,-82.0032,2.38,6.17,1111122 
SCCF RECON,ioos:station:SCCF:13:1,2009-12-11T15:00:00Z,26.5255,-82.0032,2.39,6.36,1111122 
SCCF RECON,ioos:station:SCCF:13:1,2009-12-11T16:00:00Z,26.5255,-82.0032,2.377,6.57,1111122 
SCCF RECON,ioos:station:SCCF:13:1,2009-12-11T17:00:00Z,26.5255,-82.0032,2.35,6.6,1111122 
SCCF RECON,ioos:station:SCCF:13:1,2009-12-11T18:00:00Z,26.5255,-82.0032,2.3,6.28,1111122 
SCCF RECON,ioos:station:SCCF:13:1,2009-12-11T19:00:00Z,26.5255,-82.0032,2.28,7.19,1111122 
SCCF RECON,ioos:station:SCCF:13:1,2009-12-11T20:00:00Z,26.5255,-82.0032,2.28,7.17,1111122 
SCCF RECON,ioos:station:SCCF:13:1,2009-12-11T21:00:00Z,26.5255,-82.0032,2.319,5.42,1111122 
SCCF RECON,ioos:station:SCCF:13:1,2009-12-11T22:00:00Z,26.5255,-82.0032,2.4,6.77,1111122 